Havre-Saint-Pierre, Quebec

6:27 PM EDT on April 25, 2018 (GMT -0400)
Havre-Saint-Pierre

Weather History for CYGV - March, 2014

Change the Weather History Date:

Monday, March 17, 2014

  Actual Average Record
Temperature  
Mean Temperature 8 °F -  
Max Temperature 14 °F 32 °F 46 °F (2001)
Min Temperature 3 °F 17 °F -18 °F (2004)
Degree Days  
Heating Degree Days 56    
Moisture  
Dew Point 3 °F    
Average Humidity 75    
Maximum Humidity 92    
Minimum Humidity 67    
Precipitation  
Precipitation 0.00 in - - ()
Sea Level Pressure  
Sea Level Pressure 29.54 in    
Wind  
Wind Speed 24 mph ()    
Max Wind Speed 32 mph    
Max Gust Speed 43 mph    
Visibility 3.9 miles    
Events Snow    
Averages and records for this station are not official NWS values.
T = Trace of Precipitation, MM = Missing Value Source: Averaged Metar Reports

Daily Weather History Graph

Daily Weather History Graph

Search for Another Location

Airport or City:

Astronomy

Mar. 17, 2014 Rise Set
Actual Time 6:23 AM EDT 6:22 PM EDT
Civil Twilight 5:51 AM EDT 6:55 PM EDT
Nautical Twilight 5:13 AM EDT 7:33 PM EDT
Astronomical Twilight 4:34 AM EDT 8:12 PM EDT
Moon 7:45 PM EDT (3/17) 6:30 AM EDT (3/17)
Length of Visible Light 13h 03m
Length of Day
11h 58m
Full, 99% of the Moon is Illuminated
Mar 17
Full
Mar 23
Last Quarter
Mar 30
New
Apr 7
First Quarter
Apr 15
Full

Hourly Weather History & Observations

Time (EDT) Temp. Windchill Dew Point Humidity Pressure Visibility Wind Dir Wind Speed Gust Speed Precip Events Conditions
12:00 AM 14.0 °F -5.8 °F 8.6 °F 79% 29.35 in 3.0 mi West 26.5 mph 33.4 mph N/A Snow Light Snow
12:04 AM 14.0 °F -6.2 °F 8.6 °F 79% 29.35 in 2.2 mi West 27.6 mph 33.4 mph N/A Snow Light Snow
12:21 AM 14.0 °F -5.1 °F 10.4 °F 86% 29.35 in 3.0 mi West 24.2 mph 32.2 mph N/A Snow Light Snow
1:00 AM 14.0 °F -5.1 °F 10.4 °F 86% 29.37 in 3.0 mi West 24.2 mph 29.9 mph N/A Snow Light Snow
1:22 AM 12.2 °F -7.5 °F 10.4 °F 92% 29.39 in 2.2 mi West 24.2 mph 31.1 mph N/A Snow Light Snow
1:28 AM 12.2 °F -6.7 °F 8.6 °F 85% 29.39 in 3.0 mi West 21.9 mph 31.1 mph N/A Snow Light Snow
1:33 AM 12.2 °F -7.1 °F 8.6 °F 85% 29.39 in 6.0 mi West 23.0 mph 28.8 mph N/A Snow Light Snow
1:40 AM 12.2 °F -7.1 °F 8.6 °F 85% 29.39 in 8.0 mi West 23.0 mph 28.8 mph N/A   Overcast
1:44 AM 12.2 °F -8.2 °F 8.6 °F 85% 29.39 in 5.0 mi West 26.5 mph 32.2 mph N/A   Overcast
1:47 AM 12.2 °F -7.9 °F 8.6 °F 85% 29.39 in 4.0 mi West 25.3 mph 32.2 mph N/A Snow Light Snow
1:57 AM 12.2 °F -8.6 °F 6.8 °F 79% 29.39 in 2.5 mi West 27.6 mph - N/A Snow Light Snow
2:00 AM 12.2 °F -8.2 °F 6.8 °F 79% 29.40 in 2.5 mi West 26.5 mph 32.2 mph N/A Snow Light Snow
2:09 AM 10.4 °F -12.0 °F 6.8 °F 85% 29.40 in 1.5 mi West 31.1 mph - N/A Snow Light Snow
2:27 AM 10.4 °F -9.9 °F 6.8 °F 85% 29.41 in 2.0 mi West 24.2 mph 34.5 mph N/A Snow Light Snow
3:00 AM 10.4 °F -10.7 °F 5.0 °F 79% 29.42 in 2.0 mi West 26.5 mph 34.5 mph N/A Snow Light Snow
3:04 AM 8.6 °F -14.1 °F 5.0 °F 85% 29.43 in 1.8 mi West 29.9 mph - N/A Snow Light Snow
3:08 AM 8.6 °F -13.4 °F 5.0 °F 85% 29.43 in 2.0 mi West 27.6 mph 35.7 mph N/A Snow Light Snow
3:31 AM 8.6 °F -13.8 °F 3.2 °F 79% 29.44 in 1.8 mi West 28.8 mph 35.7 mph N/A Snow Light Snow
3:38 AM 8.6 °F -13.4 °F 3.2 °F 79% 29.44 in 2.0 mi West 27.6 mph 33.4 mph N/A Snow Light Snow
3:42 AM 6.8 °F -15.5 °F 3.2 °F 85% 29.44 in 3.0 mi West 26.5 mph 33.4 mph N/A Snow Light Snow
3:51 AM 6.8 °F -16.9 °F 1.4 °F 79% 29.44 in 2.5 mi West 31.1 mph 38.0 mph N/A Snow Light Snow
3:59 AM 6.8 °F -15.9 °F 1.4 °F 79% 29.45 in 1.8 mi West 27.6 mph 42.6 mph N/A Snow Light Snow
4:00 AM 6.8 °F -15.9 °F 1.4 °F 79% 29.45 in 1.8 mi West 27.6 mph 42.6 mph N/A Snow Light Snow
4:10 AM 6.8 °F -16.2 °F 1.4 °F 79% 29.45 in 2.0 mi West 28.8 mph 36.8 mph N/A Snow Light Snow
4:19 AM 6.8 °F -17.3 °F 1.4 °F 79% 29.44 in 1.8 mi West 32.2 mph 39.1 mph N/A Snow Light Snow
4:49 AM 6.8 °F -16.9 °F 1.4 °F 79% 29.45 in 0.8 mi West 31.1 mph 40.3 mph N/A Snow Light Snow
5:00 AM 6.8 °F -16.6 °F 3.2 °F 85% 29.45 in 0.6 mi West 29.9 mph 39.1 mph N/A Snow Light Snow
6:00 AM 5.0 °F -19.7 °F 1.4 °F 85% 29.46 in 0.8 mi West 32.2 mph - N/A Snow Light Snow
7:00 AM 5.0 °F -17.5 °F -0.4 °F 78% 29.48 in 0.8 mi West 25.3 mph 33.4 mph N/A Snow Light Snow
7:03 AM 5.0 °F -17.1 °F -0.4 °F 78% 29.48 in 1.0 mi West 24.2 mph 33.4 mph N/A Snow Light Snow
8:00 AM 3.2 °F -20.7 °F -2.2 °F 78% 29.50 in 1.2 mi West 27.6 mph 34.5 mph N/A Snow Light Snow
8:20 AM 3.2 °F -21.1 °F -2.2 °F 78% 29.50 in 2.0 mi West 28.8 mph 34.5 mph N/A Snow Light Snow
8:22 AM 3.2 °F -20.7 °F -2.2 °F 78% 29.51 in 1.8 mi West 27.6 mph 34.5 mph N/A Snow Light Snow
9:00 AM 5.0 °F -16.7 °F -2.2 °F 72% 29.52 in 1.2 mi West 23.0 mph 33.4 mph N/A Snow Light Snow
9:09 AM 5.0 °F -17.9 °F -2.2 °F 72% 29.52 in 2.0 mi West 26.5 mph 35.7 mph N/A Snow Light Snow
9:20 AM 5.0 °F -17.1 °F -2.2 °F 72% 29.52 in 1.8 mi West 24.2 mph 34.5 mph N/A Snow Light Snow
9:21 AM 5.0 °F -17.5 °F -2.2 °F 72% 29.52 in 2.0 mi West 25.3 mph 34.5 mph N/A Snow Light Snow
10:00 AM 5.0 °F -17.5 °F -2.2 °F 72% 29.53 in 2.2 mi West 25.3 mph 33.4 mph N/A Snow Light Snow
10:03 AM 5.0 °F -17.1 °F -2.2 °F 72% 29.54 in 3.0 mi West 24.2 mph 31.1 mph N/A Snow Light Snow
10:12 AM 6.8 °F -15.1 °F -2.2 °F 67% 29.54 in 3.0 mi West 25.3 mph 31.1 mph N/A   Haze
10:14 AM 6.8 °F -15.1 °F -0.4 °F 72% 29.54 in 3.0 mi West 25.3 mph 31.1 mph N/A Snow Light Snow
10:26 AM 6.8 °F -15.1 °F -0.4 °F 72% 29.54 in 3.0 mi West 25.3 mph 31.1 mph N/A   Haze
10:28 AM 6.8 °F -14.7 °F -0.4 °F 72% 29.54 in 3.0 mi West 24.2 mph 31.1 mph N/A Snow Light Snow
10:31 AM 6.8 °F -15.5 °F -0.4 °F 72% 29.55 in 2.5 mi West 26.5 mph 32.2 mph N/A Snow Light Snow
10:36 AM 6.8 °F -14.7 °F -0.4 °F 72% 29.54 in 3.0 mi West 24.2 mph 32.2 mph N/A Snow Light Snow
10:58 AM 6.8 °F -15.5 °F -0.4 °F 72% 29.54 in 2.5 mi West 26.5 mph 32.2 mph N/A Snow Light Snow
11:00 AM 6.8 °F -15.5 °F -0.4 °F 72% 29.54 in 2.5 mi West 26.5 mph 32.2 mph N/A Snow Light Snow
11:21 AM 8.6 °F -13.4 °F 1.4 °F 73% 29.55 in 3.0 mi West 27.6 mph 34.5 mph N/A Snow Light Snow
11:38 AM 8.6 °F -11.9 °F -0.4 °F 67% 29.55 in 4.0 mi West 23.0 mph 33.4 mph N/A   Haze
12:00 PM 8.6 °F -12.3 °F -0.4 °F 67% 29.55 in 4.0 mi West 24.2 mph 33.4 mph N/A   Haze
12:11 PM 8.6 °F -14.1 °F -0.4 °F 67% 29.56 in 4.0 mi West 29.9 mph 35.7 mph N/A Snow Light Snow
12:27 PM 8.6 °F -12.3 °F 1.4 °F 73% 29.56 in 7.0 mi West 24.2 mph 29.9 mph N/A Snow Light Snow
12:30 PM 8.6 °F -13.1 °F 1.4 °F 73% 29.56 in 7.0 mi West 26.5 mph - N/A   Scattered Clouds
12:39 PM 8.6 °F -13.4 °F 1.4 °F 73% 29.56 in 5.0 mi West 27.6 mph - N/A   Haze
12:44 PM 8.6 °F -13.4 °F 1.4 °F 73% 29.56 in 4.0 mi West 27.6 mph 33.4 mph N/A Snow Light Snow
12:56 PM 8.6 °F -13.4 °F 1.4 °F 73% 29.56 in 2.0 mi West 27.6 mph 35.7 mph N/A Snow Light Snow
12:57 PM 8.6 °F -13.4 °F 1.4 °F 73% 29.56 in 1.8 mi West 27.6 mph 35.7 mph N/A Snow Light Snow
1:00 PM 8.6 °F -14.1 °F 1.4 °F 73% 29.56 in 1.5 mi West 29.9 mph 35.7 mph N/A Snow Light Snow
1:07 PM 8.6 °F -13.4 °F 3.2 °F 79% 29.56 in 2.0 mi West 27.6 mph 35.7 mph N/A Snow Light Snow
1:13 PM 8.6 °F -12.3 °F 1.4 °F 73% 29.57 in 3.0 mi West 24.2 mph 35.7 mph N/A Snow Light Snow
1:21 PM 10.4 °F -11.0 °F 1.4 °F 67% 29.56 in 2.5 mi West 27.6 mph 33.4 mph N/A Snow Light Snow
1:22 PM 10.4 °F -10.7 °F 3.2 °F 73% 29.57 in 1.0 mi West 26.5 mph 33.4 mph N/A Snow Light Snow
1:23 PM 10.4 °F -10.3 °F 3.2 °F 73% 29.57 in 0.5 mi West 25.3 mph 33.4 mph N/A Snow Light Snow
1:25 PM 10.4 °F -9.9 °F 3.2 °F 73% 29.57 in 0.2 mi West 24.2 mph 32.2 mph N/A Snow Heavy Snow
1:34 PM 10.4 °F -9.9 °F 1.4 °F 67% 29.57 in 1.2 mi West 24.2 mph 31.1 mph N/A Snow Heavy Snow
1:35 PM 10.4 °F -9.5 °F 1.4 °F 67% 29.57 in 6.0 mi West 23.0 mph 31.1 mph N/A Snow Light Snow
2:00 PM 10.4 °F -9.9 °F 1.4 °F 67% 29.57 in 9.0 mi West 24.2 mph 31.1 mph N/A Snow Light Snow
2:17 PM 10.4 °F -9.9 °F 1.4 °F 67% 29.58 in 9.0 mi West 24.2 mph - N/A   Scattered Clouds
2:33 PM 10.4 °F -9.9 °F 3.2 °F 73% 29.58 in 9.0 mi West 24.2 mph 31.1 mph N/A Snow Light Snow
2:43 PM 10.4 °F -10.3 °F 1.4 °F 67% 29.58 in 9.0 mi West 25.3 mph 32.2 mph N/A   Mostly Cloudy
2:56 PM 10.4 °F -10.3 °F 3.2 °F 73% 29.58 in 9.0 mi West 25.3 mph 31.1 mph N/A Snow Light Snow
3:00 PM 10.4 °F -9.9 °F 3.2 °F 73% 29.58 in 9.0 mi West 24.2 mph 29.9 mph N/A Snow Light Snow
3:51 PM 12.2 °F -9.3 °F 3.2 °F 67% 29.59 in 4.0 mi West 29.9 mph 35.7 mph N/A Snow Light Snow
4:00 PM 12.2 °F -9.3 °F 3.2 °F 67% 29.59 in 6.0 mi West 29.9 mph 35.7 mph N/A Snow Light Snow
4:05 PM 12.2 °F -8.9 °F 5.0 °F 73% 29.59 in 5.0 mi West 28.8 mph 35.7 mph N/A Snow Light Snow
4:37 PM 12.2 °F -8.9 °F 5.0 °F 73% 29.60 in 6.0 mi West 28.8 mph 35.7 mph N/A Snow Light Snow
5:00 PM 12.2 °F -7.9 °F 5.0 °F 73% 29.61 in 8.0 mi West 25.3 mph 33.4 mph N/A Snow Light Snow
5:29 PM 12.2 °F -7.5 °F 3.2 °F 67% 29.63 in 9.0 mi West 24.2 mph 31.1 mph N/A   Clear
6:00 PM 12.2 °F -6.7 °F 3.2 °F 67% 29.64 in 9.0 mi West 21.9 mph 27.6 mph N/A   Clear
6:41 PM 12.2 °F -6.7 °F 5.0 °F 73% 29.66 in 0.8 mi West 21.9 mph 27.6 mph N/A   Haze
6:42 PM 12.2 °F -6.7 °F 3.2 °F 67% 29.66 in 0.8 mi West 21.9 mph 27.6 mph N/A Snow Light Snow
6:51 PM 12.2 °F -6.3 °F 3.2 °F 67% 29.66 in 9.0 mi West 20.7 mph 31.1 mph N/A Snow Light Snow
6:56 PM 12.2 °F -6.7 °F 3.2 °F 67% 29.66 in 9.0 mi West 21.9 mph 31.1 mph N/A   Clear
7:00 PM 12.2 °F -6.7 °F 3.2 °F 67% 29.67 in 9.0 mi West 21.9 mph 31.1 mph N/A   Clear
8:00 PM 10.4 °F -8.6 °F 1.4 °F 67% 29.69 in 9.0 mi West 20.7 mph - N/A   Mostly Cloudy
8:10 PM 10.4 °F -7.7 °F 5.0 °F 79% 29.69 in 3.0 mi West 18.4 mph 24.2 mph N/A   Haze
8:11 PM 10.4 °F -7.7 °F 5.0 °F 79% 29.69 in 1.2 mi West 18.4 mph 24.2 mph N/A   Haze
8:12 PM 10.4 °F -7.2 °F 3.2 °F 73% 29.69 in 1.0 mi West 17.3 mph 24.2 mph N/A Snow Light Snow
8:21 PM 10.4 °F -7.7 °F 1.4 °F 67% 29.70 in 2.5 mi West 18.4 mph 24.2 mph N/A Snow Light Snow
8:22 PM 10.4 °F -7.7 °F 1.4 °F 67% 29.70 in 9.0 mi West 18.4 mph 24.2 mph N/A Snow Light Snow
8:27 PM 10.4 °F -8.2 °F 1.4 °F 67% 29.70 in 9.0 mi West 19.6 mph - N/A   Scattered Clouds
9:00 PM 8.6 °F -9.5 °F 1.4 °F 73% 29.71 in 9.0 mi West 17.3 mph - N/A   Partly Cloudy
10:00 PM 8.6 °F -10.5 °F 1.4 °F 73% 29.71 in 9.0 mi West 19.6 mph 25.3 mph N/A   Overcast
11:00 PM 10.4 °F -7.7 °F 3.2 °F 73% 29.73 in 9.0 mi West 18.4 mph - N/A   Overcast
11:14 PM 10.4 °F -7.2 °F 3.2 °F 73% 29.72 in 9.0 mi West 17.3 mph - N/A Snow Light Snow